GW6642 Weather Reports


time (UTC)temp
C
wind
direction
speed
KPH
gust
KPH
rain 1hr
cm
rain 24hr
cm
rain mn
cm
humidity
%
barometer
mb
20260506192944 19 118 3.2 12.9 0.00 0.00 0.00 73 1010.2
20260506192441 19 250 6.4 12.9 0.00 0.00 0.00 74 1010.2
20260506191938 19 293 4.8 11.3 0.00 0.00 0.00 74 1010.3
20260506191434 19 211 3.2 12.9 0.00 0.00 0.00 74 1010.4
20260506190931 18 239 17.7 20.9 0.00 0.00 0.00 74 1010.4
20260506190428 18 260 14.5 20.9 0.00 0.00 0.00 74 1010.3
20260506185925 18 253 8.0 11.3 0.00 0.00 0.00 75 1010.2
20260506185422 18 153 6.4 16.1 0.00 0.00 0.00 75 1010.4
20260506184919 18 160 9.7 17.7 0.00 0.00 0.00 75 1010.5
20260506184416 18 83 4.8 11.3 0.00 0.00 0.00 76 1010.5
20260506183913 18 122 3.2 4.8 0.00 0.00 0.00 77 1010.7
20260506183408 18 250 1.6 11.3 0.00 0.00 0.00 78 1010.8
20260506182906 18 217 14.5 27.4 0.00 0.00 0.00 75 1010.9
20260506182403 19 148 3.2 20.9 0.00 0.00 0.00 72 1010.8
20260506181900 19 186 16.1 27.4 0.00 0.00 0.00 71 1010.7
20260506181358 19 240 9.7 17.7 0.00 0.00 0.00 71 1010.8
20260506180855 19 134 9.7 14.5 0.00 0.00 0.00 70 1010.7
20260506180351 19 126 3.2 16.1 0.00 0.00 0.00 70 1010.7
20260506175848 19 137 1.6 22.5 0.00 0.00 0.00 70 1010.6
20260506175344 19 193 11.3 17.7 0.00 0.00 0.00 70 1011.0
20260506174841 19 216 3.2 12.9 0.00 0.00 0.00 70 1010.8
20260506174339 19 175 4.8 25.7 0.00 0.00 0.00 70 1010.8
20260506173836 19 259 14.5 16.1 0.00 0.00 0.00 70 1010.9
20260506173333 19 283 4.8 16.1 0.00 0.00 0.00 71 1010.8
20260506172830 19 95 6.4 9.7 0.00 0.00 0.00 72 1011.2
20260506172327 19 175 8.0 14.5 0.00 0.00 0.00 71 1011.1
20260506171824 19 175 9.7 16.1 0.00 0.00 0.00 72 1011.2
20260506171321 19 151 4.8 9.7 0.00 0.00 0.00 72 1011.0
20260506170819 20 74 14.5 24.1 0.00 0.00 0.00 70 1011.1
20260506170314 20 285 6.4 12.9 0.00 0.00 0.00 70 1011.2
20260506165814 20 165 11.3 16.1 0.00 0.00 0.00 69 1011.1
20260506165311 20 165 17.7 22.5 0.00 0.00 0.00 68 1010.8
20260506164807 21 219 11.3 17.7 0.00 0.00 0.00 67 1011.2
20260506164304 20 205 6.4 12.9 0.00 0.00 0.00 69 1011.3
20260506163801 20 178 11.3 20.9 0.00 0.00 0.00 67 1011.5
20260506163256 20 156 4.8 6.4 0.00 0.00 0.00 69 1011.6
20260506162752 20 243 12.9 20.9 0.00 0.00 0.00 68 1011.8
20260506162250 20 102 4.8 12.9 0.00 0.00 0.00 69 1011.8
20260506161747 20 98 0.0 6.4 0.00 0.00 0.00 70 1012.0
20260506161244 20 236 4.8 6.4 0.00 0.00 0.00 68 1012.2
20260506160742 20 340 4.8 9.7 0.00 0.00 0.00 67 1012.4
20260506160238 20 226 3.2 4.8 0.00 0.00 0.00 67 1012.4
20260506155737 20 148 1.6 6.4 0.00 0.00 0.00 68 1012.5
20260506155233 20 222 4.8 11.3 0.00 0.00 0.00 67 1012.2
20260506153341 20 232 9.7 22.5 0.00 0.00 0.00 62 1012.2
20260506152837 20 122 1.6 17.7 0.00 0.00 0.00 62 1012.2
20260506152335 20 160 6.4 11.3 0.00 0.00 0.00 60 1012.6
20260506151833 21 330 9.7 14.5 0.00 0.00 0.00 60 1012.3
20260506151329 21 213 3.2 14.5 0.00 0.00 0.00 58 1012.1
20260506150827 21 188 14.5 25.7 0.00 0.00 0.00 57 1012.0
20260506150323 21 186 3.2 6.4 0.00 0.00 0.00 59 1012.1
20260506145820 21 234 9.7 16.1 0.00 0.00 0.00 58 1012.1
20260506145316 20 177 1.6 16.1 0.00 0.00 0.00 59 1012.4
20260506144814 20 208 3.2 12.9 0.00 0.00 0.00 59 1012.4
20260506144311 20 105 3.2 12.9 0.00 0.00 0.00 59 1012.7
20260506143809 20 54 3.2 9.7 0.00 0.00 0.00 59 1012.5
20260506143306 20 218 4.8 11.3 0.00 0.00 0.00 59 1012.6
20260506142804 21 250 9.7 16.1 0.00 0.00 0.00 58 1012.4
20260506142302 21 255 9.7 20.9 0.00 0.00 0.00 58 1012.3
20260506141800 21 149 1.6 16.1 0.00 0.00 0.00 58 1012.4
20260506141258 21 238 8.0 17.7 0.00 0.00 0.00 57 1012.1
20260506140755 21 265 6.4 20.9 0.00 0.00 0.00 58 1012.3
20260506140252 21 132 6.4 12.9 0.00 0.00 0.00 59 1012.1
20260506135749 20 109 8.0 14.5 0.00 0.00 0.00 59 1012.1
20260506135245 20 150 1.6 20.9 0.00 0.00 0.00 60 1012.1
20260506134742 20 329 6.4 14.5 0.00 0.00 0.00 60 1012.1
20260506134238 20 189 6.4 25.7 0.00 0.00 0.00 60 1012.3
20260506133736 20 231 3.2 11.3 0.00 0.00 0.00 60 1012.1
20260506133232 20 276 9.7 14.5 0.00 0.00 0.00 59 1012.1
20260506132729 20 231 12.9 24.1 0.00 0.00 0.00 59 1012.4
20260506132226 20 266 4.8 22.5 0.00 0.00 0.00 59 1012.4
20260506131724 20 252 6.4 20.9 0.00 0.00 0.00 59 1012.4
20260506131220 21 176 6.4 24.1 0.00 0.00 0.00 60 1012.5
20260506130717 21 186 6.4 11.3 0.00 0.00 0.00 59 1012.6
20260506130214 21 307 9.7 20.9 0.00 0.00 0.00 58 1012.4
20260506125712 21 245 11.3 17.7 0.00 0.00 0.00 58 1012.4
20260506125209 21 185 6.4 17.7 0.00 0.00 0.00 59 1012.6
20260506124707 20 218 9.7 12.9 0.00 0.00 0.00 61 1012.6
20260506124205 20 269 8.0 27.4 0.00 0.00 0.00 62 1012.5
20260506123702 20 188 4.8 24.1 0.00 0.00 0.00 62 1012.5
20260506123201 20 102 4.8 14.5 0.00 0.00 0.00 62 1012.3
20260506122657 20 239 8.0 16.1 0.00 0.00 0.00 64 1012.3
20260506122155 20 265 9.7 12.9 0.00 0.00 0.00 63 1012.3
20260506121653 20 169 6.4 14.5 0.00 0.00 0.00 64 1012.3
20260506121148 19 147 8.0 12.9 0.00 0.00 0.00 65 1012.6
20260506120647 18 202 6.4 9.7 0.00 0.00 0.00 67 1012.4
20260506120144 18 163 4.8 16.1 0.00 0.00 0.00 67 1012.9
20260506115642 18 178 19.3 25.7 0.00 0.00 0.00 67 1012.5
20260506115140 18 202 14.5 17.7 0.00 0.00 0.00 67 1012.6
20260506114637 18 123 6.4 11.3 0.00 0.00 0.00 67 1012.6
20260506114135 18 107 3.2 11.3 0.00 0.00 0.00 68 1012.8
20260506113633 18 255 8.0 11.3 0.00 0.00 0.00 68 1012.8
20260506113130 18 145 1.6 6.4 0.00 0.00 0.00 68 1012.6
20260506112626 18 190 4.8 22.5 0.00 0.00 0.00 68 1012.7
20260506112124 18 197 4.8 20.9 0.00 0.00 0.00 68 1012.6
20260506111621 18 165 3.2 11.3 0.00 0.00 0.00 68 1012.5
20260506111119 18 223 9.7 14.5 0.00 0.00 0.00 67 1012.6
20260506110616 18 156 3.2 11.3 0.00 0.00 0.00 68 1012.8
20260506110114 18 170 4.8 14.5 0.00 0.00 0.00 68 1012.6
20260506105610 18 246 3.2 12.9 0.00 0.00 0.00 69 1012.5
20260506105107 18 169 1.6 4.8 0.00 0.00 0.00 69 1012.5
20260506104605 18 169 3.2 16.1 0.00 0.00 0.00 69 1012.5
20260506104102 18 221 4.8 11.3 0.00 0.00 0.00 70 1012.4
20260506103559 18 193 8.0 16.1 0.00 0.00 0.00 70 1012.5
20260506103056 18 195 4.8 22.5 0.00 0.00 0.00 71 1012.5
20260506102554 17 126 3.2 9.7 0.00 0.00 0.00 71 1012.6
20260506102052 17 161 8.0 11.3 0.00 0.00 0.00 71 1012.6
20260506101548 17 170 1.6 9.7 0.00 0.00 0.00 72 1012.5
20260506101045 17 211 8.0 14.5 0.00 0.00 0.00 72 1012.6
20260506100543 17 264 3.2 9.7 0.00 0.00 0.00 72 1012.5
20260506100041 17 105 3.2 9.7 0.00 0.00 0.00 72 1012.5
20260506095540 17 144 6.4 14.5 0.00 0.00 0.00 72 1012.3
20260506095036 17 132 9.7 14.5 0.00 0.00 0.00 72 1012.4
20260506094534 17 210 3.2 9.7 0.00 0.00 0.00 72 1012.3
20260506094031 17 119 8.0 14.5 0.00 0.00 0.00 73 1012.5
20260506093530 18 177 4.8 14.5 0.00 0.00 0.00 72 1012.4
20260506093027 17 108 6.4 16.1 0.00 0.00 0.00 72 1012.6
20260506092524 18 105 8.0 12.9 0.00 0.00 0.00 72 1012.3
20260506092021 18 222 8.0 11.3 0.00 0.00 0.00 73 1012.4
20260506091520 18 159 3.2 12.9 0.00 0.00 0.00 72 1012.4
20260506091016 17 198 11.3 12.9 0.00 0.00 0.00 73 1012.4
20260506090514 17 202 4.8 9.7 0.00 0.00 0.00 73 1012.7
20260506090010 18 151 6.4 11.3 0.00 0.00 0.00 73 1012.6
20260506085507 18 184 6.4 9.7 0.00 0.00 0.00 72 1012.6
20260506085003 18 152 3.2 12.9 0.00 0.00 0.00 72 1012.4
20260506084500 18 213 4.8 6.4 0.00 0.00 0.00 73 1012.6
20260506083956 18 157 4.8 14.5 0.00 0.00 0.00 73 1012.7
20260506083454 18 123 8.0 14.5 0.00 0.00 0.00 73 1012.6
20260506082951 18 185 4.8 14.5 0.00 0.00 0.00 73 1012.8
20260506082448 18 212 1.6 4.8 0.00 0.00 0.00 73 1012.7
20260506081943 18 88 8.0 12.9 0.00 0.00 0.00 73 1012.8
20260506081442 18 204 3.2 11.3 0.00 0.00 0.00 73 1012.8
20260506080939 18 124 1.6 6.4 0.00 0.00 0.00 73 1012.8
20260506080436 18 206 3.2 6.4 0.00 0.00 0.00 73 1012.9
20260506073420 18 102 0.0 12.9 0.00 0.00 0.00 72 1012.7
20260506072917 18 130 4.8 11.3 0.00 0.00 0.00 72 1012.9
20260506072414 18 258 9.7 14.5 0.00 0.00 0.00 71 1012.8
20260506071912 18 229 3.2 11.3 0.00 0.00 0.00 71 1012.7
20260506071410 18 134 4.8 16.1 0.00 0.00 0.00 71 1012.8
20260506070906 18 176 6.4 6.4 0.00 0.00 0.00 71 1012.7
20260506070403 18 127 8.0 17.7 0.00 0.00 0.00 71 1013.0
20260506062340 19 179 8.0 12.9 0.00 0.00 0.00 70 1012.9
20260506061836 19 234 4.8 14.5 0.00 0.00 0.00 70 1013.1
20260506061333 19 282 6.4 17.7 0.00 0.00 0.00 69 1012.9
20260506060831 19 169 8.0 16.1 0.00 0.00 0.00 69 1013.0
20260506060329 19 171 8.0 11.3 0.00 0.00 0.00 69 1013.0
20260506051301 20 290 4.8 11.3 0.00 0.00 0.00 66 1013.4
20260506050759 20 213 6.4 11.3 0.00 0.00 0.00 66 1013.4
20260506050256 20 123 1.6 3.2 0.00 0.00 0.00 66 1013.5
20260506044746 20 285 4.8 12.9 0.00 0.00 0.00 66 1013.4
20260506044244 20 14 1.6 11.3 0.00 0.00 0.00 65 1013.5
20260506043741 20 184 4.8 9.7 0.00 0.00 0.00 65 1013.3
20260506043238 20 176 1.6 14.5 0.00 0.00 0.00 64 1013.2
20260506042737 20 169 11.3 16.1 0.00 0.00 0.00 64 1013.3
20260506042235 20 163 4.8 14.5 0.00 0.00 0.00 64 1013.4
20260506041733 20 133 8.0 17.7 0.00 0.00 0.00 64 1013.1
20260506041230 20 179 3.2 4.8 0.00 0.00 0.00 63 1013.5
20260506040727 20 99 8.0 12.9 0.00 0.00 0.00 63 1013.1
20260506040224 20 192 9.7 17.7 0.00 0.00 0.00 63 1013.5
20260506035721 20 222 4.8 12.9 0.00 0.00 0.00 63 1013.1
20260506035218 20 245 4.8 6.4 0.00 0.00 0.00 62 1013.1
20260506034715 20 91 3.2 9.7 0.00 0.00 0.00 62 1013.2
20260506034212 20 194 3.2 22.5 0.00 0.00 0.00 62 1013.3
20260506033709 20 168 6.4 20.9 0.00 0.00 0.00 61 1013.3
20260506033206 20 179 6.4 9.7 0.00 0.00 0.00 61 1013.1
20260506032703 20 243 9.7 25.7 0.00 0.00 0.00 60 1013.2
20260506032200 20 94 1.6 14.5 0.00 0.00 0.00 60 1013.1
20260506031657 20 267 11.3 27.4 0.00 0.00 0.00 60 1013.4
20260506031154 20 152 9.7 17.7 0.00 0.00 0.00 60 1013.3
20260506030653 20 193 6.4 9.7 0.00 0.00 0.00 60 1013.2
20260506030149 20 183 12.9 17.7 0.00 0.00 0.00 59 1013.3
20260506025646 20 184 3.2 12.9 0.00 0.00 0.00 59 1013.4
20260506025142 21 153 3.2 12.9 0.00 0.00 0.00 58 1013.4
20260506024640 21 203 6.4 9.7 0.00 0.00 0.00 58 1013.4
20260506024136 21 198 11.3 20.9 0.00 0.00 0.00 57 1013.3
20260506023632 21 204 9.7 22.5 0.00 0.00 0.00 57 1013.4
20260506023129 21 136 9.7 22.5 0.00 0.00 0.00 56 1013.4
20260506022627 21 192 9.7 17.7 0.00 0.00 0.00 56 1013.5
20260506022124 21 119 4.8 22.5 0.00 0.00 0.00 55 1013.4
20260506021622 21 189 8.0 20.9 0.00 0.00 0.00 54 1013.4
20260506021119 21 151 6.4 16.1 0.00 0.00 0.00 54 1013.4
20260506020616 21 211 6.4 17.7 0.00 0.00 0.00 54 1013.5
20260506020114 21 229 3.2 12.9 0.00 0.00 0.00 54 1013.4
20260506015611 21 119 6.4 11.3 0.00 0.00 0.00 53 1013.3
20260506015108 21 153 9.7 14.5 0.00 0.00 0.00 53 1013.2
20260506014606 21 191 8.0 20.9 0.00 0.00 0.00 52 1013.2
20260506014100 21 227 8.0 29.0 0.00 0.00 0.00 52 1013.2
20260506013559 21 161 14.5 22.5 0.00 0.00 0.00 52 1013.1
20260506013055 21 125 3.2 11.3 0.00 0.00 0.00 53 1013.0
20260506012552 21 163 6.4 12.9 0.00 0.00 0.00 52 1013.0
20260506012048 21 238 9.7 17.7 0.00 0.00 0.00 52 1013.0
20260506011546 22 129 9.7 17.7 0.00 0.00 0.00 52 1012.9
20260506011042 22 228 12.9 25.7 0.00 0.00 0.00 52 1012.9
20260506010542 21 219 6.4 24.1 0.00 0.00 0.00 52 1012.7
20260506010038 22 104 4.8 6.4 0.00 0.00 0.00 52 1012.7
20260506005535 22 224 3.2 14.5 0.00 0.00 0.00 52 1013.0
20260506005031 22 223 12.9 17.7 0.00 0.00 0.00 52 1012.8
20260506004529 22 150 9.7 12.9 0.00 0.00 0.00 52 1012.7
20260506004025 22 151 17.7 24.1 0.00 0.00 0.00 51 1012.8
20260506003522 22 244 6.4 12.9 0.00 0.00 0.00 51 1012.7
20260506003018 22 224 14.5 25.7 0.00 0.00 0.00 50 1012.6
20260506002514 22 211 16.1 22.5 0.00 0.00 0.00 50 1012.3
20260506002009 22 128 3.2 11.3 0.00 0.00 0.00 48 1012.6
20260506001506 23 213 6.4 12.9 0.00 0.00 0.00 47 1012.3
20260506001004 23 125 4.8 9.7 0.00 0.00 0.00 45 1012.4
20260506000501 23 104 6.4 12.9 0.00 0.00 0.00 43 1012.3
20260505235958 23 167 9.7 14.5 0.00 0.00 0.00 41 1012.2
20260505235456 24 228 4.8 14.5 0.00 0.00 0.00 41 1012.3
20260505234952 24 84 4.8 11.3 0.00 0.00 0.00 40 1012.1
20260505234450 25 198 3.2 17.7 0.00 0.00 0.00 39 1012.0
20260505233946 25 103 3.2 9.7 0.00 0.00 0.00 38 1011.9
20260505233444 25 180 3.2 16.1 0.00 0.00 0.00 37 1012.0
20260505232941 25 215 12.9 16.1 0.00 0.00 0.00 36 1011.9
20260505232440 25 249 8.0 16.1 0.00 0.00 0.00 35 1011.7
20260505231936 25 106 4.8 9.7 0.00 0.00 0.00 36 1011.8
20260505231433 25 168 3.2 12.9 0.00 0.00 0.00 35 1011.6
20260505230932 25 109 3.2 4.8 0.00 0.00 0.00 35 1011.6
20260505230429 26 206 9.7 16.1 0.00 0.00 0.00 35 1011.6
20260505225925 26 214 6.4 12.9 0.00 0.00 0.00 35 1011.6
20260505225422 26 266 8.0 12.9 0.00 0.00 0.00 35 1011.6
20260505224918 26 179 9.7 22.5 0.00 0.00 0.00 34 1011.6
20260505224415 26 190 4.8 16.1 0.00 0.00 0.00 35 1011.6
20260505223912 26 167 4.8 22.5 0.00 0.00 0.00 34 1011.5
20260505223409 26 202 11.3 14.5 0.00 0.00 0.00 34 1011.6
20260505222905 26 198 12.9 17.7 0.00 0.00 0.00 33 1011.4
20260505222402 27 151 4.8 25.7 0.00 0.00 0.00 33 1011.5
20260505221858 27 210 8.0 20.9 0.00 0.00 0.00 33 1011.3
20260505221355 27 133 16.1 24.1 0.00 0.00 0.00 32 1011.4
20260505220852 27 189 1.6 20.9 0.00 0.00 0.00 32 1011.3
20260505220349 27 283 8.0 30.6 0.00 0.00 0.00 30 1011.2
20260505215847 27 264 9.7 22.5 0.00 0.00 0.00 30 1011.3
20260505215345 27 191 8.0 22.5 0.00 0.00 0.00 30 1011.4
20260505214843 27 159 4.8 11.3 0.00 0.00 0.00 30 1011.4
20260505214340 28 140 12.9 25.7 0.00 0.00 0.00 29 1011.3
20260505213837 28 204 3.2 16.1 0.00 0.00 0.00 28 1011.0
20260505213335 28 268 9.7 24.1 0.00 0.00 0.00 26 1011.3
20260505212831 28 191 12.9 27.4 0.00 0.00 0.00 25 1011.2
20260505212328 28 124 6.4 22.5 0.00 0.00 0.00 26 1011.2
20260505211823 28 244 17.7 27.4 0.00 0.00 0.00 25 1011.0
20260505211321 28 141 1.6 25.7 0.00 0.00 0.00 26 1011.0
20260505210818 28 190 12.9 22.5 0.00 0.00 0.00 25 1011.0
20260505210315 28 234 4.8 17.7 0.00 0.00 0.00 25 1010.8
20260505205812 28 119 4.8 27.4 0.00 0.00 0.00 25 1010.9
20260505205310 28 112 4.8 30.6 0.00 0.00 0.00 25 1010.9
20260505204806 28 231 4.8 16.1 0.00 0.00 0.00 25 1011.1
20260505204304 28 85 1.6 9.7 0.00 0.00 0.00 30 1010.7
20260505203801 28 204 17.7 25.7 0.00 0.00 0.00 29 1011.0
20260505203258 28 278 4.8 22.5 0.00 0.00 0.00 30 1011.0
20260505202754 28 233 9.7 38.6 0.00 0.00 0.00 30 1010.8
20260505202251 28 230 12.9 17.7 0.00 0.00 0.00 31 1011.0
20260505201747 28 237 16.1 24.1 0.00 0.00 0.00 30 1010.9
20260505201245 28 211 12.9 38.6 0.00 0.00 0.00 30 1011.1
20260505200743 28 210 9.7 20.9 0.00 0.00 0.00 31 1010.9
20260505200240 28 102 3.2 16.1 0.00 0.00 0.00 32 1011.0
20260505195735 28 173 9.7 17.7 0.00 0.00 0.00 31 1010.9
20260505195233 28 200 12.9 27.4 0.00 0.00 0.00 31 1011.2
20260505194730 29 143 8.0 16.1 0.00 0.00 0.00 31 1011.0
20260505194226 28 221 6.4 12.9 0.00 0.00 0.00 31 1011.1
20260505193722 28 285 11.3 25.7 0.00 0.00 0.00 31 1011.2
20260505193220 28 270 20.9 29.0 0.00 0.00 0.00 31 1011.2